Flag for Congo Dem.Rep. Weather past 2 weeks in Kinshasa, Congo Dem.Rep.

Now
72 °F

Scattered clouds.


Feels Like: 69 °F
Forecast: 76 / 87 °F
Wind: 3 mph from West

Location: Brazzaville / Maya-Maya

Current Time: Jan 25, 2015 at 5:36:36 PM

Latest Report: Jan 25, 2015 at 5:00 PM


Visibility: N/A

Pressure: 29.83 "Hg

Humidity: 88%

Dew point: 68 °F

Location of KinshasaLocation

Historic Weather in Kinshasa — Graph

°F

Kinshasa temperature yesterday

Maximum temperature yesterday: 88 °F (at 2:00 PM)
Minimum temperature yesterday: 72 °F (at 6:00 AM)
Average temperature yesterday: 80 °F

Past Weeks' High & Low Weather Summary

 TemperatureHumidityPressure
High91 °F (Jan 20, 3:00 PM)94% (Jan 11, 10:00 PM)30.04 "Hg (Jan 11, 10:00 PM)
Low68 °F (Jan 17, 3:00 AM)48% (Jan 13, 11:00 AM)29.77 "Hg (Jan 20, 5:00 PM)
Average80 °F77%29.91 "Hg
* Reported Jan 10 4:00 PM — Jan 25 4:00 PM, Kinshasa, Weather by CustomWeather, © 2014

Note: Actual official high and low records may vary slightly from our data, if they occured in-between our weather recording intervals... More about our weather records

Advertising

Kinshasa weather history for previous 24 hours

 ConditionsComfort  
Time TempWeatherWind HumidityBarometerVisibility
4:00 PM
Jan 25
72 °FScattered clouds.8 mph94%29.83 "HgN/A
3:00 PM70 °FLight rain. Scattered clouds.7 mph94%29.89 "HgN/A
2:00 PM70 °FThunderstorms. Scattered clouds.3 mph94%29.92 "Hg5 mi
1:00 PM70 °FThunderstorms. Broken clouds.9 mph94%29.95 "Hg4 mi
12:55 PM70 °FThunderstorms. Broken clouds.9 mph94%29.95 "Hg4 mi
12:00 PM73 °FLight rain. Partly sunny.10 mph89%29.95 "Hg4 mi
11:00 AM81 °FPartly sunny.3 mph79%29.92 "Hg6 mi
10:00 AM81 °FPartly sunny.5 mph79%29.95 "HgN/A
9:00 AM79 °FPartly sunny.5 mph84%29.95 "HgN/A
8:00 AM79 °FPartly sunny.6 mph84%29.92 "Hg5 mi
7:00 AM77 °FPartly sunny.2 mph89%29.92 "Hg5 mi
6:00 AM75 °FPassing clouds.5 mph94%29.86 "Hg5 mi
5:00 AM77 °FPassing clouds.3 mph89%29.86 "Hg5 mi
4:00 AM75 °FPassing clouds.2 mph94%29.86 "Hg5 mi
3:00 AM77 °FClear.5 mph89%29.86 "Hg5 mi
2:00 AM79 °FClear.6 mph84%29.86 "Hg5 mi
1:00 AM79 °FClear.6 mph84%29.86 "Hg5 mi
12:00 AM81 °FClear.5 mph79%29.89 "Hg5 mi
11:00 PM
Jan 24
81 °FClear.3 mph79%29.89 "Hg5 mi
10:00 PM81 °FClear.3 mph79%29.89 "Hg5 mi
9:00 PM82 °FClear.5 mph70%29.86 "Hg5 mi
8:00 PM82 °FClear.6 mph70%29.83 "Hg5 mi
7:00 PM84 °FClear.6 mph66%29.80 "Hg5 mi
6:00 PM86 °FPassing clouds.7 mph62%29.80 "HgN/A
5:00 PM88 °FPassing clouds.7 mph59%29.77 "HgN/A
Weather by CustomWeather, © 2014

See weather overviewHow to use our weather pages